Time,TemperatureF,DewpointF,PressureIn,WindDirection,WindDirectionDegrees,WindSpeedMPH,WindSpeedGustMPH,Humidity,HourlyPrecipIn,Conditions,Clouds,dailyrainin,SoftwareType,DateUTC
2013-12-04 00:02:00,41.0,22.8,28.70,NNE,12,0.0,0.0,48,0.00,,,0.00,VWS V13.01,2013-12-04 06:02:00,
2013-12-04 00:07:00,41.0,22.8,28.70,North,9,0.0,0.0,48,0.00,,,0.00,VWS V13.01,2013-12-04 06:07:00,
2013-12-04 00:12:00,41.0,22.8,28.70,North,11,0.0,0.0,48,0.00,,,0.00,VWS V13.01,2013-12-04 06:12:00,
2013-12-04 00:17:00,40.8,23.1,28.70,North,11,0.0,0.0,49,0.00,,,0.00,VWS V13.01,2013-12-04 06:17:00,
2013-12-04 00:22:00,40.8,23.1,28.70,North,11,0.0,0.0,49,0.00,,,0.00,VWS V13.01,2013-12-04 06:22:00,
2013-12-04 00:27:00,40.8,23.1,28.70,North,11,0.0,0.0,49,0.00,,,0.00,VWS V13.01,2013-12-04 06:27:00,
2013-12-04 00:32:00,40.8,23.1,28.67,North,11,0.0,0.0,49,0.00,,,0.00,VWS V13.01,2013-12-04 06:32:00,
2013-12-04 00:37:00,40.6,23.0,28.67,NNE,14,0.0,0.0,49,0.00,,,0.00,VWS V13.01,2013-12-04 06:37:00,
2013-12-04 00:42:00,40.6,23.0,28.67,North,8,0.0,0.0,49,0.00,,,0.00,VWS V13.01,2013-12-04 06:42:00,
2013-12-04 00:47:00,40.6,23.5,28.67,North,9,0.0,0.0,50,0.00,,,0.00,VWS V13.01,2013-12-04 06:47:00,
2013-12-04 00:52:00,40.6,23.5,28.67,NNE,19,0.0,0.0,50,0.00,,,0.00,VWS V13.01,2013-12-04 06:52:00,
2013-12-04 00:57:00,40.6,23.5,28.67,NNE,19,0.0,0.0,50,0.00,,,0.00,VWS V13.01,2013-12-04 06:57:00,
2013-12-04 01:02:00,40.6,23.5,28.67,NNE,19,0.0,0.0,50,0.00,,,0.00,VWS V13.01,2013-12-04 07:02:00,
2013-12-04 01:07:00,40.6,23.9,28.67,NNE,19,0.0,0.0,51,0.00,,,0.00,VWS V13.01,2013-12-04 07:07:00,
2013-12-04 01:12:00,40.6,23.9,28.67,NNE,15,0.0,0.0,51,0.00,,,0.00,VWS V13.01,2013-12-04 07:12:00,
2013-12-04 01:17:00,40.6,23.9,28.67,North,7,0.0,0.0,51,0.00,,,0.00,VWS V13.01,2013-12-04 07:17:00,
2013-12-04 01:22:00,40.6,23.9,28.67,North,7,0.0,0.0,51,0.00,,,0.00,VWS V13.01,2013-12-04 07:22:00,
2013-12-04 01:27:00,40.6,23.9,28.67,North,7,0.0,0.0,51,0.00,,,0.00,VWS V13.01,2013-12-04 07:27:00,
2013-12-04 01:32:00,40.6,23.9,28.67,North,7,0.0,0.0,51,0.00,,,0.00,VWS V13.01,2013-12-04 07:32:00,
2013-12-04 01:37:00,40.6,23.9,28.67,North,7,0.0,0.0,51,0.00,,,0.00,VWS V13.01,2013-12-04 07:37:00,
2013-12-04 01:42:00,40.6,23.9,28.67,NNE,14,0.0,0.0,51,0.00,,,0.00,VWS V13.01,2013-12-04 07:42:00,
2013-12-04 01:47:00,40.5,23.8,28.67,NNE,14,0.0,0.0,51,0.00,,,0.00,VWS V13.01,2013-12-04 07:47:00,
2013-12-04 01:52:00,40.6,23.9,28.67,NNE,14,0.0,0.0,51,0.00,,,0.00,VWS V13.01,2013-12-04 07:52:00,
2013-12-04 01:57:00,40.6,24.4,28.67,North,11,0.0,0.0,52,0.00,,,0.00,VWS V13.01,2013-12-04 07:57:00,
2013-12-04 02:02:00,40.5,24.2,28.67,North,9,0.0,0.0,52,0.00,,,0.00,VWS V13.01,2013-12-04 08:02:00,
2013-12-04 02:07:00,40.5,23.8,28.67,North,8,0.0,0.0,51,0.00,,,0.00,VWS V13.01,2013-12-04 08:07:00,
2013-12-04 02:12:00,40.5,24.2,28.67,North,11,0.0,0.0,52,0.00,,,0.00,VWS V13.01,2013-12-04 08:12:00,
2013-12-04 02:17:00,40.3,24.1,28.64,NE,50,0.0,0.0,52,0.00,,,0.00,VWS V13.01,2013-12-04 08:17:00,
2013-12-04 02:22:00,40.3,24.1,28.64,NNE,19,0.0,0.0,52,0.00,,,0.00,VWS V13.01,2013-12-04 08:22:00,
2013-12-04 02:28:00,40.3,24.1,28.64,NNE,19,0.0,0.0,52,0.00,,,0.00,VWS V13.01,2013-12-04 08:28:00,
2013-12-04 02:33:00,40.3,24.1,28.67,NNE,19,0.0,0.0,52,0.00,,,0.00,VWS V13.01,2013-12-04 08:33:00,
2013-12-04 02:38:00,40.3,24.1,28.67,NNE,19,0.0,0.0,52,0.00,,,0.00,VWS V13.01,2013-12-04 08:38:00,
2013-12-04 02:43:00,40.3,24.5,28.67,NNE,19,0.0,0.0,53,0.00,,,0.00,VWS V13.01,2013-12-04 08:43:00,
2013-12-04 02:48:00,40.3,24.5,28.67,NNE,19,0.0,0.0,53,0.00,,,0.00,VWS V13.01,2013-12-04 08:48:00,
2013-12-04 02:53:00,40.3,24.5,28.67,NNE,19,0.0,0.0,53,0.00,,,0.00,VWS V13.01,2013-12-04 08:53:00,
2013-12-04 02:58:00,40.3,24.5,28.67,NNE,19,0.0,0.0,53,0.00,,,0.00,VWS V13.01,2013-12-04 08:58:00,
2013-12-04 03:03:00,40.3,24.5,28.64,North,357,0.0,0.0,53,0.00,,,0.00,VWS V13.01,2013-12-04 09:03:00,
2013-12-04 03:08:00,40.3,24.5,28.64,North,357,0.0,0.0,53,0.00,,,0.00,VWS V13.01,2013-12-04 09:08:00,
2013-12-04 03:13:00,40.3,24.5,28.64,North,357,0.0,0.0,53,0.00,,,0.00,VWS V13.01,2013-12-04 09:13:00,
2013-12-04 03:18:00,40.3,24.5,28.64,North,357,0.0,0.0,53,0.00,,,0.00,VWS V13.01,2013-12-04 09:18:00,
2013-12-04 03:23:00,40.3,24.5,28.64,North,357,0.0,0.0,53,0.00,,,0.00,VWS V13.01,2013-12-04 09:23:00,
2013-12-04 03:28:00,40.3,25.0,28.64,North,357,0.0,0.0,54,0.00,,,0.00,VWS V13.01,2013-12-04 09:28:00,
2013-12-04 03:33:00,40.3,25.0,28.64,North,357,0.0,0.0,54,0.00,,,0.00,VWS V13.01,2013-12-04 09:33:00,
2013-12-04 03:38:00,40.3,25.0,28.64,North,357,0.0,0.0,54,0.00,,,0.00,VWS V13.01,2013-12-04 09:38:00,
2013-12-04 03:43:00,40.3,25.0,28.64,North,357,0.0,0.0,54,0.00,,,0.00,VWS V13.01,2013-12-04 09:43:00,
2013-12-04 03:48:00,40.3,25.0,28.64,North,357,0.0,0.0,54,0.00,,,0.00,VWS V13.01,2013-12-04 09:48:00,
2013-12-04 03:53:00,40.3,25.0,28.64,North,357,0.0,0.0,54,0.00,,,0.00,VWS V13.01,2013-12-04 09:53:00,
2013-12-04 03:58:00,40.3,25.0,28.64,North,357,0.0,0.0,54,0.00,,,0.00,VWS V13.01,2013-12-04 09:58:00,
2013-12-04 04:03:00,40.3,25.0,28.64,North,357,0.0,0.0,54,0.00,,,0.00,VWS V13.01,2013-12-04 10:03:00,
2013-12-04 04:08:00,40.5,25.1,28.64,North,357,0.0,0.0,54,0.00,,,0.00,VWS V13.01,2013-12-04 10:08:00,
2013-12-04 04:13:00,40.5,25.6,28.64,North,357,0.0,0.0,55,0.00,,,0.00,VWS V13.01,2013-12-04 10:13:00,
2013-12-04 04:18:00,40.5,25.6,28.64,North,357,0.0,0.0,55,0.00,,,0.00,VWS V13.01,2013-12-04 10:18:00,
2013-12-04 04:23:00,40.6,25.8,28.64,North,357,0.0,0.0,55,0.00,,,0.00,VWS V13.01,2013-12-04 10:23:00,
2013-12-04 04:28:00,40.6,25.8,28.64,North,357,0.0,0.0,55,0.00,,,0.00,VWS V13.01,2013-12-04 10:28:00,
2013-12-04 04:33:00,40.6,25.8,28.64,North,357,0.0,0.0,55,0.00,,,0.00,VWS V13.01,2013-12-04 10:33:00,
2013-12-04 04:38:00,40.6,25.8,28.64,North,357,0.0,0.0,55,0.00,,,0.00,VWS V13.01,2013-12-04 10:38:00,
2013-12-04 04:44:00,40.5,25.1,28.64,North,357,0.0,0.0,54,0.00,,,0.00,VWS V13.01,2013-12-04 10:44:00,
2013-12-04 04:49:00,40.5,25.1,28.64,North,357,0.0,0.0,54,0.00,,,0.00,VWS V13.01,2013-12-04 10:49:00,
2013-12-04 04:54:00,40.3,25.0,28.64,North,357,0.0,0.0,54,0.00,,,0.00,VWS V13.01,2013-12-04 10:54:00,
2013-12-04 04:59:00,40.3,25.4,28.64,North,9,0.0,0.0,55,0.00,,,0.00,VWS V13.01,2013-12-04 10:59:00,
2013-12-04 05:04:00,40.3,25.4,28.64,North,11,0.0,0.0,55,0.00,,,0.00,VWS V13.01,2013-12-04 11:04:00,
2013-12-04 05:09:00,40.3,25.4,28.64,NNE,13,0.0,0.0,55,0.00,,,0.00,VWS V13.01,2013-12-04 11:09:00,
2013-12-04 05:14:00,40.3,25.4,28.64,North,7,0.0,0.0,55,0.00,,,0.00,VWS V13.01,2013-12-04 11:14:00,
2013-12-04 05:19:00,40.3,25.4,28.61,NE,39,0.0,0.0,55,0.00,,,0.00,VWS V13.01,2013-12-04 11:19:00,
2013-12-04 05:24:00,40.1,25.2,28.61,NE,37,0.0,0.0,55,0.00,,,0.00,VWS V13.01,2013-12-04 11:24:00,
2013-12-04 05:29:00,40.1,25.2,28.61,NE,37,0.0,0.0,55,0.00,,,0.00,VWS V13.01,2013-12-04 11:29:00,
2013-12-04 05:34:00,40.1,25.7,28.61,NE,37,0.0,0.0,56,0.00,,,0.00,VWS V13.01,2013-12-04 11:34:00,
2013-12-04 05:39:00,40.3,25.9,28.61,NE,37,0.0,0.0,56,0.00,,,0.00,VWS V13.01,2013-12-04 11:39:00,
2013-12-04 05:44:00,40.3,25.9,28.61,NE,37,0.0,0.0,56,0.00,,,0.00,VWS V13.01,2013-12-04 11:44:00,
2013-12-04 05:49:00,40.3,25.9,28.61,NE,37,0.0,0.0,56,0.00,,,0.00,VWS V13.01,2013-12-04 11:49:00,
2013-12-04 05:54:00,40.3,25.9,28.61,NNE,24,0.0,0.0,56,0.00,,,0.00,VWS V13.01,2013-12-04 11:54:00,
2013-12-04 05:59:00,40.1,25.7,28.61,North,357,0.0,0.0,56,0.00,,,0.00,VWS V13.01,2013-12-04 11:59:00,
2013-12-04 06:04:00,40.1,25.7,28.61,North,357,0.0,0.0,56,0.00,,,0.00,VWS V13.01,2013-12-04 12:04:00,
2013-12-04 06:09:00,39.9,25.5,28.61,North,357,0.0,0.0,56,0.00,,,0.00,VWS V13.01,2013-12-04 12:09:00,
2013-12-04 06:14:00,40.1,25.7,28.61,North,357,0.0,0.0,56,0.00,,,0.00,VWS V13.01,2013-12-04 12:14:00,
2013-12-04 06:19:00,40.3,26.3,28.61,North,357,0.0,0.0,57,0.00,,,0.00,VWS V13.01,2013-12-04 12:19:00,
2013-12-04 06:25:00,40.3,26.3,28.61,North,357,0.0,0.0,57,0.00,,,0.00,VWS V13.01,2013-12-04 12:25:00,
2013-12-04 06:30:00,40.5,26.4,28.61,North,357,0.0,0.0,57,0.00,,,0.00,VWS V13.01,2013-12-04 12:30:00,
2013-12-04 06:35:00,40.5,26.4,28.64,North,357,0.0,0.0,57,0.00,,,0.00,VWS V13.01,2013-12-04 12:35:00,
2013-12-04 06:40:00,40.6,26.6,28.64,North,357,0.0,0.0,57,0.00,,,0.00,VWS V13.01,2013-12-04 12:40:00,
2013-12-04 06:45:00,40.6,26.6,28.64,North,357,0.0,0.0,57,0.00,,,0.00,VWS V13.01,2013-12-04 12:45:00,
2013-12-04 06:50:00,40.6,26.6,28.61,North,357,0.0,0.0,57,0.00,,,0.00,VWS V13.01,2013-12-04 12:50:00,
2013-12-04 06:55:00,40.6,26.6,28.61,North,357,0.0,0.0,57,0.00,,,0.00,VWS V13.01,2013-12-04 12:55:00,
2013-12-04 07:00:00,40.6,26.6,28.61,North,357,0.0,0.0,57,0.00,,,0.00,VWS V13.01,2013-12-04 13:00:00,
2013-12-04 07:05:00,40.6,26.6,28.61,North,357,0.0,0.0,57,0.00,,,0.00,VWS V13.01,2013-12-04 13:05:00,
2013-12-04 07:10:00,40.6,26.6,28.61,North,3,0.0,0.0,57,0.00,,,0.00,VWS V13.01,2013-12-04 13:10:00,
2013-12-04 07:15:00,40.6,26.6,28.61,North,3,0.0,0.0,57,0.00,,,0.00,VWS V13.01,2013-12-04 13:15:00,
2013-12-04 07:20:00,40.6,26.6,28.61,North,2,0.0,0.0,57,0.00,,,0.00,VWS V13.01,2013-12-04 13:20:00,
2013-12-04 07:25:00,40.6,26.6,28.61,North,3,0.0,0.0,57,0.00,,,0.00,VWS V13.01,2013-12-04 13:25:00,
2013-12-04 07:30:00,40.5,26.4,28.61,North,3,0.0,0.0,57,0.00,,,0.00,VWS V13.01,2013-12-04 13:30:00,
2013-12-04 07:35:00,40.5,26.4,28.61,North,3,0.0,0.0,57,0.00,,,0.00,VWS V13.01,2013-12-04 13:35:00,
2013-12-04 07:40:00,40.5,26.4,28.61,North,3,0.0,0.0,57,0.00,,,0.00,VWS V13.01,2013-12-04 13:40:00,
2013-12-04 07:45:00,40.5,26.4,28.61,North,3,0.0,0.0,57,0.00,,,0.00,VWS V13.01,2013-12-04 13:45:00,
2013-12-04 07:50:00,40.5,26.4,28.61,North,3,0.0,0.0,57,0.00,,,0.00,VWS V13.01,2013-12-04 13:50:00,
2013-12-04 07:56:00,40.5,26.9,28.61,North,3,0.0,0.0,58,0.00,,,0.00,VWS V13.01,2013-12-04 13:56:00,
2013-12-04 08:01:00,40.5,26.9,28.61,North,3,0.0,0.0,58,0.00,,,0.00,VWS V13.01,2013-12-04 14:01:00,
2013-12-04 08:06:00,40.6,27.0,28.61,North,3,0.0,0.0,58,0.00,,,0.00,VWS V13.01,2013-12-04 14:06:00,
2013-12-04 08:11:00,40.6,27.0,28.61,North,3,0.0,0.0,58,0.00,,,0.00,VWS V13.01,2013-12-04 14:11:00,
2013-12-04 08:16:00,40.6,27.0,28.64,North,3,0.0,0.0,58,0.00,,,0.00,VWS V13.01,2013-12-04 14:16:00,
2013-12-04 08:21:00,40.6,27.0,28.64,North,2,0.0,0.0,58,0.00,,,0.00,VWS V13.01,2013-12-04 14:21:00,
2013-12-04 08:26:00,40.6,27.0,28.64,North,2,0.0,0.0,58,0.00,,,0.00,VWS V13.01,2013-12-04 14:26:00,
2013-12-04 08:31:00,40.6,27.0,28.61,North,2,0.0,0.0,58,0.00,,,0.00,VWS V13.01,2013-12-04 14:31:00,
2013-12-04 08:36:00,40.5,26.9,28.61,North,357,0.0,0.0,58,0.00,,,0.00,VWS V13.01,2013-12-04 14:36:00,
2013-12-04 08:41:00,40.6,27.0,28.61,North,357,0.0,0.0,58,0.00,,,0.00,VWS V13.01,2013-12-04 14:41:00,
2013-12-04 08:46:00,40.5,26.9,28.61,North,357,0.0,0.0,58,0.00,,,0.00,VWS V13.01,2013-12-04 14:46:00,
2013-12-04 08:51:00,40.6,27.0,28.61,North,357,0.0,0.0,58,0.00,,,0.00,VWS V13.01,2013-12-04 14:51:00,
2013-12-04 08:56:00,40.6,27.5,28.61,North,357,0.0,0.0,59,0.00,,,0.00,VWS V13.01,2013-12-04 14:56:00,
2013-12-04 09:01:00,40.8,27.6,28.61,North,357,0.0,0.0,59,0.00,,,0.00,VWS V13.01,2013-12-04 15:01:00,
2013-12-04 09:06:00,40.8,27.6,28.61,North,357,0.0,0.0,59,0.00,,,0.00,VWS V13.01,2013-12-04 15:06:00,
2013-12-04 09:12:00,41.0,27.4,28.61,North,357,0.0,0.0,58,0.00,,,0.00,VWS V13.01,2013-12-04 15:12:00,
2013-12-04 09:17:00,41.0,27.4,28.61,North,357,0.0,0.0,58,0.00,,,0.00,VWS V13.01,2013-12-04 15:17:00,
2013-12-04 09:22:00,41.0,27.8,28.61,North,357,0.0,0.0,59,0.00,,,0.00,VWS V13.01,2013-12-04 15:22:00,
2013-12-04 09:27:00,41.2,28.0,28.61,North,357,0.0,0.0,59,0.00,,,0.00,VWS V13.01,2013-12-04 15:27:00,
2013-12-04 09:32:00,41.2,28.0,28.61,North,357,0.0,0.0,59,0.00,,,0.00,VWS V13.01,2013-12-04 15:32:00,
2013-12-04 09:37:00,41.4,28.1,28.61,North,357,0.0,0.0,59,0.00,,,0.00,VWS V13.01,2013-12-04 15:37:00,
2013-12-04 09:42:00,41.4,28.1,28.61,North,357,0.0,0.0,59,0.00,,,0.00,VWS V13.01,2013-12-04 15:42:00,
2013-12-04 09:47:00,41.4,28.1,28.61,North,6,0.0,0.0,59,0.00,,,0.00,VWS V13.01,2013-12-04 15:47:00,
2013-12-04 09:52:00,41.5,28.3,28.61,North,8,0.0,0.0,59,0.00,,,0.00,VWS V13.01,2013-12-04 15:52:00,
2013-12-04 09:57:00,41.4,28.1,28.61,North,9,0.0,0.0,59,0.00,,,0.00,VWS V13.01,2013-12-04 15:57:00,
2013-12-04 10:03:00,41.5,28.3,28.61,North,10,0.0,0.0,59,0.00,,,0.00,VWS V13.01,2013-12-04 16:03:00,
2013-12-04 10:08:00,41.5,28.3,28.61,North,7,0.0,0.0,59,0.00,,,0.00,VWS V13.01,2013-12-04 16:08:00,
2013-12-04 10:13:00,41.4,28.1,28.61,North,5,0.0,0.0,59,0.00,,,0.00,VWS V13.01,2013-12-04 16:13:00,
2013-12-04 10:18:00,41.4,28.1,28.61,North,5,0.0,0.0,59,0.00,,,0.00,VWS V13.01,2013-12-04 16:18:00,
2013-12-04 10:23:00,41.5,28.3,28.61,North,5,0.0,0.0,59,0.00,,,0.00,VWS V13.01,2013-12-04 16:23:00,
2013-12-04 10:28:00,41.5,28.3,28.61,North,6,0.0,0.0,59,0.00,,,0.00,VWS V13.01,2013-12-04 16:28:00,
2013-12-04 10:33:00,41.4,28.1,28.61,North,5,0.0,0.0,59,0.00,,,0.00,VWS V13.01,2013-12-04 16:33:00,
2013-12-04 10:38:00,41.4,28.1,28.61,North,6,0.0,0.0,59,0.00,,,0.00,VWS V13.01,2013-12-04 16:38:00,
2013-12-04 10:43:00,41.2,28.0,28.61,North,5,0.0,0.0,59,0.00,,,0.00,VWS V13.01,2013-12-04 16:43:00,
2013-12-04 10:48:00,41.2,28.0,28.61,North,5,0.0,0.0,59,0.00,,,0.00,VWS V13.01,2013-12-04 16:48:00,
2013-12-04 10:54:00,41.2,28.0,28.61,North,6,0.0,0.0,59,0.00,,,0.00,VWS V13.01,2013-12-04 16:54:00,
2013-12-04 10:59:00,41.2,28.4,28.61,North,5,0.0,0.0,60,0.00,,,0.00,VWS V13.01,2013-12-04 16:59:00,
2013-12-04 11:04:00,41.0,27.8,28.61,North,6,0.0,0.0,59,0.00,,,0.00,VWS V13.01,2013-12-04 17:04:00,
2013-12-04 11:09:00,41.2,28.4,28.61,North,8,0.0,0.0,60,0.00,,,0.00,VWS V13.01,2013-12-04 17:09:00,
2013-12-04 11:14:00,41.2,28.4,28.61,North,8,0.0,0.0,60,0.00,,,0.00,VWS V13.01,2013-12-04 17:14:00,
2013-12-04 11:19:00,41.4,28.5,28.59,North,9,0.0,0.0,60,0.00,,,0.00,VWS V13.01,2013-12-04 17:19:00,
2013-12-04 11:24:00,41.7,29.3,28.59,NNE,13,0.0,0.0,61,0.00,,,0.00,VWS V13.01,2013-12-04 17:24:00,
2013-12-04 11:29:00,41.9,29.5,28.59,North,11,0.0,0.0,61,0.00,,,0.00,VWS V13.01,2013-12-04 17:29:00,
2013-12-04 11:34:00,41.7,28.9,28.59,North,11,0.0,0.0,60,0.00,,,0.00,VWS V13.01,2013-12-04 17:34:00,
2013-12-04 11:39:00,42.1,29.2,28.59,North,11,0.0,0.0,60,0.00,,,0.00,VWS V13.01,2013-12-04 17:39:00,
2013-12-04 11:44:00,42.4,30.0,28.59,North,11,0.0,0.0,61,0.00,,,0.00,VWS V13.01,2013-12-04 17:44:00,
2013-12-04 11:49:00,42.8,30.7,28.56,North,11,0.0,0.0,62,0.00,,,0.00,VWS V13.01,2013-12-04 17:49:00,
2013-12-04 11:54:00,43.0,30.5,28.56,North,11,0.0,0.0,61,0.00,,,0.00,VWS V13.01,2013-12-04 17:54:00,
2013-12-04 12:00:00,42.6,29.7,28.56,North,11,0.0,0.0,60,0.00,,,0.00,VWS V13.01,2013-12-04 18:00:00,
2013-12-04 12:05:00,42.4,29.5,28.56,North,11,0.0,0.0,60,0.00,,,0.00,VWS V13.01,2013-12-04 18:05:00,
2013-12-04 12:10:00,42.6,30.1,28.56,North,5,0.0,0.0,61,0.00,,,0.00,VWS V13.01,2013-12-04 18:10:00,
2013-12-04 12:15:00,42.6,30.1,28.56,North,4,0.0,0.0,61,0.00,,,0.00,VWS V13.01,2013-12-04 18:15:00,
2013-12-04 12:20:00,42.6,30.1,28.56,North,4,0.0,0.0,61,0.00,,,0.00,VWS V13.01,2013-12-04 18:20:00,
2013-12-04 12:25:00,42.8,30.3,28.56,North,4,0.0,0.0,61,0.00,,,0.00,VWS V13.01,2013-12-04 18:25:00,
2013-12-04 12:30:00,42.8,30.3,28.56,North,4,0.0,0.0,61,0.00,,,0.00,VWS V13.01,2013-12-04 18:30:00,
2013-12-04 12:35:00,42.4,29.5,28.56,North,4,0.0,0.0,60,0.00,,,0.00,VWS V13.01,2013-12-04 18:35:00,
2013-12-04 12:40:00,42.4,30.0,28.56,North,4,0.0,0.0,61,0.00,,,0.00,VWS V13.01,2013-12-04 18:40:00,
2013-12-04 12:45:00,42.3,29.8,28.56,North,4,0.0,0.0,61,0.00,,,0.00,VWS V13.01,2013-12-04 18:45:00,
2013-12-04 12:50:00,42.3,29.8,28.56,North,5,0.0,2.7,61,0.00,,,0.00,VWS V13.01,2013-12-04 18:50:00,
2013-12-04 12:55:00,41.7,28.9,28.56,North,5,0.0,0.0,60,0.00,,,0.00,VWS V13.01,2013-12-04 18:55:00,
2013-12-04 13:00:00,41.5,28.7,28.56,North,5,0.0,0.0,60,0.00,,,0.00,VWS V13.01,2013-12-04 19:00:00,
2013-12-04 13:05:00,41.2,28.4,28.56,North,4,0.0,0.0,60,0.00,,,0.00,VWS V13.01,2013-12-04 19:05:00,
2013-12-04 13:11:00,41.0,28.6,28.56,North,4,0.0,0.0,61,0.00,,,0.00,VWS V13.01,2013-12-04 19:11:00,
2013-12-04 13:16:00,41.0,28.6,28.56,North,5,0.0,2.2,61,0.00,,,0.00,VWS V13.01,2013-12-04 19:16:00,
2013-12-04 13:21:00,41.0,29.0,28.56,North,8,0.0,0.0,62,0.00,,,0.00,VWS V13.01,2013-12-04 19:21:00,
2013-12-04 13:26:00,40.8,28.8,28.56,North,6,11.9,11.9,62,0.00,,,0.00,VWS V13.01,2013-12-04 19:26:00,
2013-12-04 13:31:00,40.5,28.1,28.59,North,5,8.7,8.7,61,0.00,,,0.00,VWS V13.01,2013-12-04 19:31:00,
2013-12-04 13:36:00,39.9,27.6,28.59,North,5,7.2,7.2,61,0.00,,,0.00,VWS V13.01,2013-12-04 19:36:00,
2013-12-04 13:41:00,39.6,27.2,28.59,North,5,4.0,9.2,61,0.00,,,0.00,VWS V13.01,2013-12-04 19:41:00,
2013-12-04 13:46:00,39.2,26.9,28.59,North,7,5.4,7.6,61,0.00,,,0.00,VWS V13.01,2013-12-04 19:46:00,
2013-12-04 13:51:00,38.8,27.0,28.59,North,6,2.2,2.2,62,0.00,,,0.00,VWS V13.01,2013-12-04 19:51:00,
2013-12-04 13:56:00,38.7,26.8,28.59,North,5,7.6,8.1,62,0.00,,,0.00,VWS V13.01,2013-12-04 19:56:00,
2013-12-04 14:01:00,38.7,26.8,28.59,North,5,0.0,3.1,62,0.00,,,0.00,VWS V13.01,2013-12-04 20:01:00,
2013-12-04 14:07:00,38.5,26.6,28.59,North,6,5.4,5.4,62,0.00,,,0.00,VWS V13.01,2013-12-04 20:07:00,
2013-12-04 14:12:00,38.3,26.4,28.59,North,8,4.0,6.7,62,0.00,,,0.00,VWS V13.01,2013-12-04 20:12:00,
2013-12-04 14:17:00,37.9,25.7,28.61,North,6,0.0,2.2,61,0.00,,,0.00,VWS V13.01,2013-12-04 20:17:00,
2013-12-04 14:22:00,36.7,23.3,28.61,North,5,4.0,4.0,58,0.00,,,0.00,VWS V13.01,2013-12-04 20:22:00,
2013-12-04 14:27:00,35.8,21.6,28.61,North,5,0.0,3.1,56,0.00,,,0.00,VWS V13.01,2013-12-04 20:27:00,
2013-12-04 14:32:00,35.1,21.0,28.61,North,8,3.1,5.8,56,0.00,,,0.00,VWS V13.01,2013-12-04 20:32:00,
2013-12-04 14:37:00,34.5,20.5,28.61,North,6,10.5,10.5,56,0.00,,,0.00,VWS V13.01,2013-12-04 20:37:00,
2013-12-04 14:42:00,34.2,20.1,28.61,North,8,3.6,7.6,56,0.00,,,0.00,VWS V13.01,2013-12-04 20:42:00,
2013-12-04 14:47:00,33.8,19.4,28.61,North,6,3.1,5.4,55,0.00,,,0.00,VWS V13.01,2013-12-04 20:47:00,
2013-12-04 14:52:00,33.6,19.6,28.61,North,6,2.7,9.2,56,0.00,,,0.00,VWS V13.01,2013-12-04 20:52:00,
2013-12-04 14:57:00,33.4,19.4,28.61,North,4,6.7,10.1,56,0.00,,,0.00,VWS V13.01,2013-12-04 20:57:00,
2013-12-04 15:02:00,33.3,19.3,28.64,North,7,5.4,6.3,56,0.00,,,0.00,VWS V13.01,2013-12-04 21:02:00,
2013-12-04 15:07:00,32.9,19.4,28.64,North,5,0.0,0.0,57,0.00,,,0.00,VWS V13.01,2013-12-04 21:07:00,
2013-12-04 15:13:00,32.7,19.2,28.64,North,5,8.7,8.7,57,0.00,,,0.00,VWS V13.01,2013-12-04 21:13:00,
2013-12-04 15:18:00,32.5,18.6,28.64,North,8,0.0,3.1,56,0.00,,,0.00,VWS V13.01,2013-12-04 21:18:00,
2013-12-04 15:23:00,32.5,18.6,28.64,North,5,0.0,4.0,56,0.00,,,0.00,VWS V13.01,2013-12-04 21:23:00,
2013-12-04 15:28:00,32.4,18.0,28.64,North,6,9.2,9.2,55,0.00,,,0.00,VWS V13.01,2013-12-04 21:28:00,
2013-12-04 15:33:00,32.4,17.6,28.67,North,7,2.7,8.1,54,0.00,,,0.00,VWS V13.01,2013-12-04 21:33:00,
2013-12-04 15:38:00,32.2,16.5,28.67,North,6,0.0,3.6,52,0.00,,,0.00,VWS V13.01,2013-12-04 21:38:00,
2013-12-04 15:43:00,32.2,16.1,28.67,North,9,3.6,3.6,51,0.00,,,0.00,VWS V13.01,2013-12-04 21:43:00,
2013-12-04 15:48:00,32.2,15.6,28.67,North,6,2.2,2.2,50,0.00,,,0.00,VWS V13.01,2013-12-04 21:48:00,
2013-12-04 15:53:00,32.2,15.2,28.67,North,7,7.6,7.6,49,0.00,,,0.00,VWS V13.01,2013-12-04 21:53:00,
2013-12-04 15:58:00,32.2,14.7,28.67,North,5,0.0,3.1,48,0.00,,,0.00,VWS V13.01,2013-12-04 21:58:00,
2013-12-04 16:03:00,32.0,13.6,28.67,North,5,0.0,5.4,46,0.00,,,0.00,VWS V13.01,2013-12-04 22:03:00,
2013-12-04 16:08:00,32.0,13.1,28.67,North,5,0.0,5.4,45,0.00,,,0.00,VWS V13.01,2013-12-04 22:08:00,
2013-12-04 16:13:00,31.6,11.7,28.67,North,6,3.6,3.6,43,0.00,,,0.00,VWS V13.01,2013-12-04 22:13:00,
2013-12-04 16:18:00,31.6,11.7,28.70,North,5,0.0,0.0,43,0.00,,,0.00,VWS V13.01,2013-12-04 22:18:00,
2013-12-04 16:23:00,31.5,11.6,28.70,North,6,0.0,0.0,43,0.00,,,0.00,VWS V13.01,2013-12-04 22:23:00,
2013-12-04 16:28:00,31.3,10.9,28.70,North,5,0.0,5.8,42,0.00,,,0.00,VWS V13.01,2013-12-04 22:28:00,
2013-12-04 16:33:00,31.1,10.7,28.70,North,6,4.0,4.0,42,0.00,,,0.00,VWS V13.01,2013-12-04 22:33:00,
2013-12-04 16:39:00,30.9,10.0,28.70,North,6,4.0,4.0,41,0.00,,,0.00,VWS V13.01,2013-12-04 22:39:00,
2013-12-04 16:44:00,30.7,9.3,28.70,North,6,8.1,8.1,40,0.00,,,0.00,VWS V13.01,2013-12-04 22:44:00,
2013-12-04 16:49:00,30.6,9.1,28.70,North,6,2.2,2.2,40,0.00,,,0.00,VWS V13.01,2013-12-04 22:49:00,
2013-12-04 16:54:00,30.4,8.4,28.70,North,6,3.1,8.7,39,0.00,,,0.00,VWS V13.01,2013-12-04 22:54:00,
2013-12-04 16:59:00,30.2,8.2,28.70,North,6,6.3,6.3,39,0.00,,,0.00,VWS V13.01,2013-12-04 22:59:00,
2013-12-04 17:04:00,29.8,6.8,28.70,North,6,0.0,0.0,37,0.00,,,0.00,VWS V13.01,2013-12-04 23:04:00,
2013-12-04 17:09:00,29.7,5.4,28.70,North,6,0.0,0.0,35,0.00,,,0.00,VWS V13.01,2013-12-04 23:09:00,
2013-12-04 17:14:00,29.5,4.6,28.70,North,6,0.0,0.0,34,0.00,,,0.00,VWS V13.01,2013-12-04 23:14:00,
2013-12-04 17:19:00,29.3,4.4,28.73,North,6,0.0,0.0,34,0.00,,,0.00,VWS V13.01,2013-12-04 23:19:00,
2013-12-04 17:24:00,29.1,3.6,28.73,North,6,0.0,0.0,33,0.00,,,0.00,VWS V13.01,2013-12-04 23:24:00,
2013-12-04 17:29:00,28.9,3.5,28.73,North,6,0.0,0.0,33,0.00,,,0.00,VWS V13.01,2013-12-04 23:29:00,
2013-12-04 17:34:00,28.8,3.3,28.73,North,6,0.0,0.0,33,0.00,,,0.00,VWS V13.01,2013-12-04 23:34:00,
2013-12-04 17:39:00,28.6,2.5,28.73,North,6,0.0,0.0,32,0.00,,,0.00,VWS V13.01,2013-12-04 23:39:00,
2013-12-04 17:44:00,28.4,2.3,28.73,North,6,0.0,0.0,32,0.00,,,0.00,VWS V13.01,2013-12-04 23:44:00,
2013-12-04 17:50:00,28.2,2.2,28.73,North,6,0.0,0.0,32,0.00,,,0.00,VWS V13.01,2013-12-04 23:50:00,
2013-12-04 17:55:00,28.0,2.0,28.73,North,6,0.0,0.0,32,0.00,,,0.00,VWS V13.01,2013-12-04 23:55:00,
2013-12-04 18:00:00,27.9,1.8,28.73,North,6,0.0,0.0,32,0.00,,,0.00,VWS V13.01,2013-12-05 00:00:00,
2013-12-04 18:05:00,27.7,1.7,28.76,North,6,0.0,0.0,32,0.00,,,0.00,VWS V13.01,2013-12-05 00:05:00,
2013-12-04 18:10:00,27.5,1.5,28.76,North,6,0.0,0.0,32,0.00,,,0.00,VWS V13.01,2013-12-05 00:10:00,
2013-12-04 18:15:00,27.3,1.4,28.76,North,6,0.0,0.0,32,0.00,,,0.00,VWS V13.01,2013-12-05 00:15:00,
2013-12-04 18:20:00,27.1,1.2,28.76,North,6,0.0,0.0,32,0.00,,,0.00,VWS V13.01,2013-12-05 00:20:00,
2013-12-04 18:25:00,27.0,1.0,28.76,North,6,0.0,0.0,32,0.00,,,0.00,VWS V13.01,2013-12-05 00:25:00,
2013-12-04 18:30:00,27.1,1.2,28.76,North,6,0.0,0.0,32,0.00,,,0.00,VWS V13.01,2013-12-05 00:30:00,
2013-12-04 18:35:00,27.0,1.0,28.76,North,6,0.0,0.0,32,0.00,,,0.00,VWS V13.01,2013-12-05 00:35:00,
2013-12-04 18:40:00,26.6,0.7,28.76,North,6,0.0,0.0,32,0.00,,,0.00,VWS V13.01,2013-12-05 00:40:00,
2013-12-04 18:45:00,26.6,0.7,28.76,North,6,0.0,0.0,32,0.00,,,0.00,VWS V13.01,2013-12-05 00:45:00,
2013-12-04 18:50:00,26.4,0.6,28.76,North,6,0.0,0.0,32,0.00,,,0.00,VWS V13.01,2013-12-05 00:50:00,
2013-12-04 18:56:00,26.2,0.4,28.76,North,6,0.0,0.0,32,0.00,,,0.00,VWS V13.01,2013-12-05 00:56:00,
2013-12-04 19:01:00,26.1,0.2,28.79,North,6,0.0,0.0,32,0.00,,,0.00,VWS V13.01,2013-12-05 01:01:00,
2013-12-04 19:06:00,25.9,0.1,28.79,North,6,0.0,0.0,32,0.00,,,0.00,VWS V13.01,2013-12-05 01:06:00,
2013-12-04 19:11:00,25.7,-0.1,28.79,North,6,0.0,0.0,32,0.00,,,0.00,VWS V13.01,2013-12-05 01:11:00,
2013-12-04 19:16:00,25.5,-0.9,28.79,North,6,0.0,0.0,31,0.00,,,0.00,VWS V13.01,2013-12-05 01:16:00,
2013-12-04 19:21:00,25.3,-1.1,28.79,North,6,0.0,0.0,31,0.00,,,0.00,VWS V13.01,2013-12-05 01:21:00,
2013-12-04 19:26:00,25.2,-2.6,28.79,North,6,0.0,0.0,29,0.00,,,0.00,VWS V13.01,2013-12-05 01:26:00,
2013-12-04 19:31:00,25.2,-2.6,28.82,North,6,0.0,0.0,29,0.00,,,0.00,VWS V13.01,2013-12-05 01:31:00,
2013-12-04 19:36:00,25.0,-2.8,28.82,North,6,0.0,0.0,29,0.00,,,0.00,VWS V13.01,2013-12-05 01:36:00,
2013-12-04 19:41:00,25.0,-2.8,28.82,North,6,0.0,0.0,29,0.00,,,0.00,VWS V13.01,2013-12-05 01:41:00,
2013-12-04 19:46:00,25.0,-2.8,28.82,North,6,0.0,0.0,29,0.00,,,0.00,VWS V13.01,2013-12-05 01:46:00,
2013-12-04 19:52:00,25.0,-2.8,28.82,North,6,0.0,0.0,29,0.00,,,0.00,VWS V13.01,2013-12-05 01:52:00,
2013-12-04 19:57:00,25.0,-2.8,28.82,North,6,0.0,0.0,29,0.00,,,0.00,VWS V13.01,2013-12-05 01:57:00,
2013-12-04 20:02:00,25.0,-2.8,28.82,North,6,0.0,0.0,29,0.00,,,0.00,VWS V13.01,2013-12-05 02:02:00,
2013-12-04 20:07:00,24.8,-2.9,28.82,North,6,0.0,0.0,29,0.00,,,0.00,VWS V13.01,2013-12-05 02:07:00,
2013-12-04 20:12:00,24.3,-4.9,28.82,North,6,0.0,0.0,27,0.00,,,0.00,VWS V13.01,2013-12-05 02:12:00,
2013-12-04 20:17:00,24.1,-5.1,28.85,North,6,0.0,0.0,27,0.00,,,0.00,VWS V13.01,2013-12-05 02:17:00,
2013-12-04 20:22:00,23.9,-5.2,28.85,North,6,0.0,0.0,27,0.00,,,0.00,VWS V13.01,2013-12-05 02:22:00,
2013-12-04 20:27:00,23.7,-5.4,28.85,North,6,0.0,0.0,27,0.00,,,0.00,VWS V13.01,2013-12-05 02:27:00,
2013-12-04 20:32:00,23.5,-5.5,28.82,North,6,0.0,0.0,27,0.00,,,0.00,VWS V13.01,2013-12-05 02:32:00,
2013-12-04 20:37:00,23.5,-5.5,28.82,North,6,0.0,0.0,27,0.00,,,0.00,VWS V13.01,2013-12-05 02:37:00,
2013-12-04 20:42:00,23.5,-5.5,28.82,North,6,0.0,0.0,27,0.00,,,0.00,VWS V13.01,2013-12-05 02:42:00,
2013-12-04 20:47:00,23.4,-5.7,28.85,North,6,0.0,0.0,27,0.00,,,0.00,VWS V13.01,2013-12-05 02:47:00,
2013-12-04 20:52:00,23.4,-5.7,28.85,North,6,0.0,0.0,27,0.00,,,0.00,VWS V13.01,2013-12-05 02:52:00,
2013-12-04 20:57:00,23.5,-5.5,28.85,North,6,0.0,0.0,27,0.00,,,0.00,VWS V13.01,2013-12-05 02:57:00,
2013-12-04 21:02:00,23.4,-5.7,28.85,North,6,0.0,0.0,27,0.00,,,0.00,VWS V13.01,2013-12-05 03:02:00,
2013-12-04 21:07:00,23.4,-5.7,28.85,North,6,0.0,0.0,27,0.00,,,0.00,VWS V13.01,2013-12-05 03:07:00,
2013-12-04 21:12:00,23.2,-5.8,28.85,North,6,0.0,0.0,27,0.00,,,0.00,VWS V13.01,2013-12-05 03:12:00,
2013-12-04 21:17:00,23.0,-6.0,28.88,North,6,0.0,0.0,27,0.00,,,0.00,VWS V13.01,2013-12-05 03:17:00,
2013-12-04 21:23:00,23.0,-6.0,28.88,North,6,0.0,0.0,27,0.00,,,0.00,VWS V13.01,2013-12-05 03:23:00,
2013-12-04 21:28:00,22.8,-7.7,28.88,North,6,0.0,0.0,25,0.00,,,0.00,VWS V13.01,2013-12-05 03:28:00,
2013-12-04 21:33:00,22.8,-7.7,28.88,North,6,0.0,0.0,25,0.00,,,0.00,VWS V13.01,2013-12-05 03:33:00,
2013-12-04 21:38:00,22.5,-8.0,28.88,North,6,0.0,0.0,25,0.00,,,0.00,VWS V13.01,2013-12-05 03:38:00,
2013-12-04 21:43:00,22.5,-8.0,28.88,North,6,0.0,0.0,25,0.00,,,0.00,VWS V13.01,2013-12-05 03:43:00,
2013-12-04 21:48:00,22.5,-8.0,28.88,North,6,0.0,0.0,25,0.00,,,0.00,VWS V13.01,2013-12-05 03:48:00,
2013-12-04 21:53:00,22.3,-8.2,28.88,North,6,0.0,0.0,25,0.00,,,0.00,VWS V13.01,2013-12-05 03:53:00,
2013-12-04 21:58:00,22.3,-8.2,28.88,North,6,0.0,0.0,25,0.00,,,0.00,VWS V13.01,2013-12-05 03:58:00,
2013-12-04 22:03:00,22.1,-8.3,28.88,North,6,0.0,0.0,25,0.00,,,0.00,VWS V13.01,2013-12-05 04:03:00,
2013-12-04 22:08:00,22.1,-8.3,28.88,North,6,0.0,0.0,25,0.00,,,0.00,VWS V13.01,2013-12-05 04:08:00,
2013-12-04 22:13:00,21.9,-8.5,28.88,North,6,0.0,0.0,25,0.00,,,0.00,VWS V13.01,2013-12-05 04:13:00,
2013-12-04 22:18:00,21.9,-8.5,28.88,North,6,0.0,0.0,25,0.00,,,0.00,VWS V13.01,2013-12-05 04:18:00,
2013-12-04 22:23:00,21.9,-8.5,28.88,North,6,0.0,0.0,25,0.00,,,0.00,VWS V13.01,2013-12-05 04:23:00,
2013-12-04 22:29:00,21.7,-8.6,28.88,North,6,0.0,0.0,25,0.00,,,0.00,VWS V13.01,2013-12-05 04:29:00,
2013-12-04 22:34:00,21.6,-8.8,28.88,North,6,0.0,0.0,25,0.00,,,0.00,VWS V13.01,2013-12-05 04:34:00,
2013-12-04 22:39:00,21.4,-9.0,28.88,North,6,0.0,0.0,25,0.00,,,0.00,VWS V13.01,2013-12-05 04:39:00,
2013-12-04 22:44:00,21.2,-9.1,28.88,North,6,0.0,0.0,25,0.00,,,0.00,VWS V13.01,2013-12-05 04:44:00,
2013-12-04 22:49:00,21.2,-9.1,28.91,North,6,0.0,0.0,25,0.00,,,0.00,VWS V13.01,2013-12-05 04:49:00,
2013-12-04 22:54:00,21.2,-9.1,28.91,North,6,0.0,0.0,25,0.00,,,0.00,VWS V13.01,2013-12-05 04:54:00,
2013-12-04 22:59:00,21.2,-9.1,28.91,North,6,0.0,0.0,25,0.00,,,0.00,VWS V13.01,2013-12-05 04:59:00,
2013-12-04 23:01:00,21.2,-9.1,28.94,North,6,0.0,0.0,25,0.00,,,0.00,VWS V13.01,2013-12-05 05:01:00,
2013-12-04 23:02:00,21.2,-9.1,28.94,North,6,0.0,0.0,25,0.00,,,0.00,VWS V13.01,2013-12-05 05:02:00,
2013-12-04 23:03:00,21.2,-9.1,28.94,North,6,0.0,0.0,25,0.00,,,0.00,VWS V13.01,2013-12-05 05:03:00,
2013-12-04 23:08:00,21.2,-9.1,28.94,North,6,0.0,0.0,25,0.00,,,0.00,VWS V13.01,2013-12-05 05:08:00,
2013-12-04 23:13:00,21.2,-9.1,28.94,North,6,0.0,0.0,25,0.00,,,0.00,VWS V13.01,2013-12-05 05:13:00,
2013-12-04 23:18:00,21.2,-9.1,28.94,North,6,0.0,0.0,25,0.00,,,0.00,VWS V13.01,2013-12-05 05:18:00,
2013-12-04 23:23:00,21.0,-9.3,28.94,North,6,0.0,0.0,25,0.00,,,0.00,VWS V13.01,2013-12-05 05:23:00,
2013-12-04 23:28:00,21.0,-9.3,28.94,North,6,0.0,0.0,25,0.00,,,0.00,VWS V13.01,2013-12-05 05:28:00,
2013-12-04 23:34:00,21.0,-9.3,28.94,North,6,0.0,0.0,25,0.00,,,0.00,VWS V13.01,2013-12-05 05:34:00,
2013-12-04 23:39:00,20.8,-9.4,28.94,North,6,0.0,0.0,25,0.00,,,0.00,VWS V13.01,2013-12-05 05:39:00,
2013-12-04 23:44:00,20.8,-9.4,28.94,North,6,0.0,0.0,25,0.00,,,0.00,VWS V13.01,2013-12-05 05:44:00,
2013-12-04 23:49:00,20.8,-9.4,28.94,North,6,0.0,0.0,25,0.00,,,0.00,VWS V13.01,2013-12-05 05:49:00,
2013-12-04 23:54:00,20.8,-9.4,28.94,North,6,0.0,0.0,25,0.00,,,0.00,VWS V13.01,2013-12-05 05:54:00,
2013-12-04 23:59:00,20.7,-9.6,28.94,North,6,0.0,0.0,25,0.00,,,0.00,VWS V13.01,2013-12-05 05:59:00,